This is the latest recevied weather packets stored in our database for station/object OK2JF-6. If no packets are shown the sender has not sent any weather packets the latest 10 day(s).
| Time | Temp. | Humidity | Pressure | Rain* | Wind** | Luminosity | Snow |
|---|---|---|---|---|---|---|---|
| 1777134603 | 17.78° C | 33% | 1084.4 hPa | 0 mm | - | 59 W/m² | - |
| 1777134364 | 17.78° C | 33% | 1084.2 hPa | 0 mm | - | 64 W/m² | - |
| 1777134064 | 17.78° C | 33% | 1084.6 hPa | 0 mm | - | 69 W/m² | - |
| 1777134003 | 17.78° C | 33% | 1084.3 hPa | 0 mm | - | 70 W/m² | - |
| 1777133163 | 17.78° C | 34% | 1084.4 hPa | 0 mm | - | 93 W/m² | - |
| 1777133104 | 17.78° C | 35% | 1084.5 hPa | 0 mm | - | 96 W/m² | - |
| 1777132983 | 17.78° C | 34% | 1084.3 hPa | 0 mm | - | 100 W/m² | - |
| 1777132684 | 17.78° C | 35% | 1084.3 hPa | 0 mm | - | 108 W/m² | - |
| 1777131603 | 18.33° C | 33% | 1084.5 hPa | 0 mm | - | 123 W/m² | - |
| 1777130823 | 18.33° C | 32% | 1084.4 hPa | 0 mm | - | 94 W/m² | - |
| 1777130763 | 18.33° C | 31% | 1084.6 hPa | 0 mm | - | 98 W/m² | - |
| 1777130644 | 18.33° C | 33% | 1084.4 hPa | 0 mm | - | 124 W/m² | - |
| 1777130523 | 18.33° C | 33% | 1084.4 hPa | 0 mm | - | 139 W/m² | - |
| 1777129864 | 18.33° C | 33% | 1084.6 hPa | 0 mm | - | 124 W/m² | - |
| 1777129563 | 18.33° C | 32% | 1084.4 hPa | 0 mm | - | 133 W/m² | - |
| 1777129443 | 18.33° C | 33% | 1084.5 hPa | 0 mm | - | 147 W/m² | - |
| 1777129383 | 18.33° C | 33% | 1084.6 hPa | 0 mm | - | 153 W/m² | - |
| 1777129323 | 18.33° C | 33% | 1084.5 hPa | 0 mm | - | 193 W/m² | - |
| 1777129144 | 18.33° C | 32% | 1084.6 hPa | 0 mm | - | 171 W/m² | - |
| 1777129023 | 18.33° C | 32% | 1084.5 hPa | 0 mm | - | 137 W/m² | - |
| 1777128723 | 18.89° C | 32% | 1084.5 hPa | 0 mm | - | 122 W/m² | - |
| 1777128303 | 18.33° C | 34% | 1084.7 hPa | 0 mm | - | 203 W/m² | - |
| 1777127649 | 18.89° C | 31% | 1084.6 hPa | 0 mm | - | 202 W/m² | - |
| 1777127418 | 18.89° C | 32% | 1084.6 hPa | 0 mm | - | 163 W/m² | - |
| 1777127163 | 18.89° C | 32% | 1084.7 hPa | 0 mm | - | 244 W/m² | - |
* Rain latest hour (hover to see other rain measurements)
** Current wind speed in m/s (hover to see current wind gust speed)